Smyrna, TN

4:47 PM CDT on July 24, 2017 (GMT -0500)
Smyrna

Weather History for KMQY - April, 2013

Change the Weather History Date:

Tuesday, April 23, 2013

  Actual Average Record
Temperature  
Mean Temperature 60 °F -  
Max Temperature 74 °F 68 °F 88 °F (2008)
Min Temperature 47 °F 50 °F 39 °F (2012)
Degree Days  
Heating Degree Days 5    
Growing Degree Days 10 (Base 50)    
Moisture  
Dew Point 49 °F    
Average Humidity 64    
Maximum Humidity 93    
Minimum Humidity 44    
Precipitation  
Precipitation 0.00 in - - ()
Sea Level Pressure  
Sea Level Pressure 30.11 in    
Wind  
Wind Speed 5 mph (South)    
Max Wind Speed 15 mph    
Max Gust Speed 20 mph    
Visibility 10 miles    
Events      
Averages and records for this station are not official NWS values.
T = Trace of Precipitation, MM = Missing Value Source: NWS Daily Summary

Daily Weather History Graph

Daily Weather History Graph

Search for Another Location

Airport or City:

Trip Planner

Search our weather history database for the weather conditions in past years. The results will help you decide how hot, cold, wet, or windy it might be!

Date:

Astronomy

Apr. 23, 2013 Rise Set
Actual Time 6:02 AM CDT 7:26 PM CDT
Civil Twilight 5:35 AM CDT 7:53 PM CDT
Nautical Twilight 5:03 AM CDT 8:26 PM CDT
Astronomical Twilight 4:29 AM CDT 8:59 PM CDT
Moon 5:24 PM CDT (4/23) 4:25 AM CDT (4/23)
Length of Visible Light 14h 18m
Length of Day
13h 24m
Waxing Gibbous, 94% of the Moon is Illuminated
Apr 23
Waxing Gibbous
Apr 25
Full
May 2
Last Quarter
May 9
New
May 17
First Quarter

Hourly Weather History & Observations

Time (CDT) Temp. Dew Point Humidity Pressure Visibility Wind Dir Wind Speed Gust Speed Precip Events Conditions
12:56 AM 48.9 °F 45.9 °F 89% 30.18 in 10.0 mi Calm Calm - N/A   Clear
1:56 AM 48.9 °F 46.9 °F 93% 30.17 in 10.0 mi Calm Calm - N/A   Clear
2:56 AM 48.9 °F 45.9 °F 89% 30.15 in 10.0 mi Calm Calm - N/A   Clear
3:56 AM 47.8 °F 45.9 °F 93% 30.14 in 10.0 mi Calm Calm - N/A   Clear
4:56 AM 50.9 °F 45.9 °F 83% 30.14 in 10.0 mi SSE 4.6 mph - N/A   Clear
5:56 AM 48.9 °F 45.9 °F 89% 30.15 in 10.0 mi Calm Calm - N/A   Partly Cloudy
6:56 AM 55.9 °F 47.8 °F 74% 30.17 in 10.0 mi South 6.9 mph - N/A   Mostly Cloudy
7:56 AM 57.9 °F 45.9 °F 64% 30.19 in 10.0 mi South 8.1 mph - N/A   Scattered Clouds
8:56 AM 61.0 °F 45.0 °F 56% 30.19 in 10.0 mi South 15.0 mph - N/A   Scattered Clouds
9:56 AM 65.8 °F 45.9 °F 48% 30.17 in 10.0 mi South 13.8 mph 19.6 mph N/A   Clear
10:56 AM 68.0 °F 46.9 °F 47% 30.18 in 10.0 mi SSW 10.4 mph - N/A   Mostly Cloudy
11:56 AM 70.0 °F 50.0 °F 49% 30.16 in 10.0 mi SSW 9.2 mph - N/A   Clear
12:56 PM 72.0 °F 50.9 °F 47% 30.14 in 10.0 mi SSW 10.4 mph 17.3 mph N/A   Clear
1:56 PM 72.9 °F 50.9 °F 46% 30.12 in 10.0 mi SW 12.7 mph - N/A   Clear
2:56 PM 73.9 °F 54.0 °F 50% 30.08 in 10.0 mi South 12.7 mph 19.6 mph N/A   Clear
3:56 PM 73.9 °F 52.0 °F 46% 30.04 in 10.0 mi South 11.5 mph 18.4 mph N/A   Partly Cloudy
4:56 PM 73.9 °F 52.0 °F 46% 30.03 in 10.0 mi South 12.7 mph 19.6 mph N/A   Scattered Clouds
5:56 PM 73.9 °F 50.9 °F 44% 30.03 in 10.0 mi SW 12.7 mph - N/A   Clear
6:56 PM 72.0 °F 52.0 °F 49% 30.02 in 10.0 mi SSW 8.1 mph - N/A   Clear
7:56 PM 68.0 °F 52.9 °F 58% 30.02 in 10.0 mi Calm Calm - N/A   Clear
8:56 PM 65.8 °F 52.9 °F 63% 30.03 in 10.0 mi Calm Calm - 0.00 in   Partly Cloudy
9:56 PM 64.9 °F 54.0 °F 68% 30.04 in 10.0 mi South 6.9 mph - N/A   Mostly Cloudy
10:56 PM 61.9 °F 52.9 °F 72% 30.04 in 10.0 mi SSE 5.8 mph - N/A   Scattered Clouds
11:56 PM 63.0 °F 54.0 °F 72% 30.03 in 10.0 mi SSE 4.6 mph - 0.00 in   Mostly Cloudy